TimeAKDT,TemperatureF,Dew PointF,Humidity,Sea Level PressureIn,VisibilityMPH,Wind Direction,Wind SpeedMPH,Gust SpeedMPH,PrecipitationIn,Events,Conditions,WindDirDegrees,DateUTC
12:53 AM,27.0,24.1,89,29.39,10.0,South,3.5,-,N/A,,Mostly Cloudy,170,2013-10-29 08:53:00
1:53 AM,23.0,21.0,92,29.42,10.0,Calm,Calm,-,N/A,,Mostly Cloudy,0,2013-10-29 09:53:00
2:53 AM,23.0,21.0,92,29.43,10.0,East,6.9,-,N/A,,Mostly Cloudy,80,2013-10-29 10:53:00
3:53 AM,26.1,24.1,92,29.44,10.0,East,4.6,-,N/A,,Mostly Cloudy,80,2013-10-29 11:53:00
4:53 AM,24.1,23.0,96,29.47,10.0,Calm,Calm,-,N/A,,Mostly Cloudy,0,2013-10-29 12:53:00
5:53 AM,30.0,24.1,79,29.46,10.0,ESE,4.6,-,N/A,,Mostly Cloudy,110,2013-10-29 13:53:00
6:53 AM,24.1,21.0,88,29.47,10.0,Calm,Calm,-,N/A,,Scattered Clouds,0,2013-10-29 14:53:00
7:53 AM,25.0,21.9,88,29.49,10.0,ENE,3.5,-,N/A,,Mostly Cloudy,60,2013-10-29 15:53:00
8:53 AM,25.0,21.9,88,29.51,10.0,Calm,Calm,-,N/A,,Mostly Cloudy,0,2013-10-29 16:53:00
9:53 AM,27.0,24.1,89,29.52,10.0,Calm,Calm,-,N/A,,Mostly Cloudy,0,2013-10-29 17:53:00
10:53 AM,35.1,27.0,72,29.53,10.0,Calm,Calm,-,N/A,,Scattered Clouds,0,2013-10-29 18:53:00
11:53 AM,39.0,27.0,62,29.54,10.0,Calm,Calm,-,N/A,,Scattered Clouds,0,2013-10-29 19:53:00
12:53 PM,42.1,27.0,55,29.54,10.0,Calm,Calm,-,N/A,,Scattered Clouds,0,2013-10-29 20:53:00
1:53 PM,46.9,23.0,39,29.54,10.0,Calm,Calm,-,N/A,,Scattered Clouds,0,2013-10-29 21:53:00
2:53 PM,48.0,19.9,33,29.54,10.0,WSW,6.9,-,N/A,,Scattered Clouds,240,2013-10-29 22:53:00
3:53 PM,46.9,19.9,34,29.53,10.0,Variable,3.5,-,N/A,,Scattered Clouds,0,2013-10-29 23:53:00
4:53 PM,44.1,21.0,40,29.54,10.0,NW,4.6,-,N/A,,Scattered Clouds,320,2013-10-30 00:53:00
5:53 PM,36.0,21.0,55,29.55,10.0,Calm,Calm,-,N/A,,Scattered Clouds,0,2013-10-30 01:53:00
6:53 PM,27.0,19.0,72,29.58,10.0,Calm,Calm,-,N/A,,Scattered Clouds,0,2013-10-30 02:53:00
7:53 PM,27.0,18.0,69,29.58,10.0,Calm,Calm,-,N/A,,Scattered Clouds,0,2013-10-30 03:53:00
8:53 PM,23.0,17.1,78,29.59,10.0,Calm,Calm,-,N/A,,Scattered Clouds,0,2013-10-30 04:53:00
9:53 PM,26.1,18.0,71,29.57,10.0,Calm,Calm,-,N/A,,Mostly Cloudy,0,2013-10-30 05:53:00
10:53 PM,24.1,18.0,77,29.56,10.0,Calm,Calm,-,N/A,,Mostly Cloudy,0,2013-10-30 06:53:00
11:53 PM,25.0,18.0,75,29.54,10.0,SE,3.5,-,N/A,,Mostly Cloudy,130,2013-10-30 07:53:00